Weather Roundup
Issued by NWS Springfield, MO

Home | Current Version | Previous Version | Text Only | Print | Product List | Glossary On
Versions: 1 2 3 4 5 6 7 8 9 10 11 12 13 14 15 16 17 18 19 20 21 22 23 24 25 26 27 28 29 30 31 32 33 34 35 36 37 38 39 40 41 42 43 44 45 46 47 48 49 50
000
NZUS99 KSGF 181007
HRRSGF

HOURLY WEATHER
NATIONAL WEATHER SERVICE SPRINGFIELD MO
500 AM CDT WED OCT 18 2017

......SGF CWA......

CITY           SKY/WX    TMP DP  RH WIND       PRES   REMARKS
SPRINGFIELD    CLEAR     49  41  74 SE14      30.15S
JOPLIN         CLEAR     49  43  80 S10       30.12F
WEST PLAINS    CLEAR     47  38  71 S3        30.20S
ROLLA          CLEAR     50  40  68 S12       30.17S
OSAGE BEACH    PTCLDY    47  40  76 SE6       30.16S
BRANSON        PTCLDY    45  39  81 CALM      30.18S

......SURROUNDING SGF CWA......

CITY           SKY/WX    TMP DP  RH WIND       PRES   REMARKS
CHANUTE        CLEAR     48  44  86 SE7       30.09S
PARSONS        CLEAR     51  44  77 S3        30.10S
COFFEYVILLE    CLEAR     49  45  86 SE6       30.10S
EMPORIA        CLEAR     50  43  77 S16       30.03S
GROVE OK       CLEAR     46  43  87 CALM      30.14S
ROGERS AR      CLEAR     47  41  80 SE3       30.16F
SILOAM SPRINGS CLEAR     44  39  82 SE8       30.15F
HARRISON AR    CLEAR     45  39  79 SE3       30.18S
NEAR YELLVILLE CLEAR     40  38  93 CALM      30.20S

......KANSAS AND MISSOURI......

CITY           SKY/WX    TMP DP  RH WIND       PRES   REMARKS
KANSAS CTY INT CLEAR     54  45  71 S10       30.05S
DOWNTOWN KC    CLEAR     57  46  66 S9        30.06S
COLUMBIA       PTCLDY    48  41  76 S9        30.14S
SEDALIA        CLEAR     47  44  90 S7        30.12S
ST JOSEPH      CLEAR     54  47  77 S8        30.03F
ST LOUIS       CLEAR     50  42  74 S5        30.19S
SPIRIT OF STL  CLEAR     42  40  92 CALM      30.18S
KIRKSVILLE     CLEAR     50  44  80 S7        30.10S
WICHITA        CLEAR     52  45  77 S12       30.01F
TOPEKA         CLEAR     55  46  71 S12       30.02F
OLATHE         CLEAR     50  44  80 S7        30.07F

......TENNESSEE......

CITY           SKY/WX    TMP DP  RH WIND       PRES   REMARKS
MEMPHIS        CLEAR     52  46  80 SE5       30.23S
NASHVILLE      CLEAR     43  41  93 CALM      30.28R

......ARKANSAS.......

CITY           SKY/WX    TMP DP  RH WIND       PRES   REMARKS
FAYETTEVILLE   CLEAR     37  37 100 CALM      30.16F
FT SMITH       CLEAR     49  46  90 NE3       30.17S
LITTLE ROCK    CLEAR     46  46 100 CALM      30.21S

......OKLAHOMA.......

CITY           SKY/WX    TMP DP  RH WIND       PRES   REMARKS
TULSA          CLEAR     53  47  79 S8        30.09S
PONCA CITY     CLEAR     56  42  59 S14       30.05S
MCALESTER      PTCLDY    51  42  71 CALM      30.13F
OKLAHOMA CITY  CLEAR     48  43  82 S9        30.07F

......IOWA............

CITY           SKY/WX    TMP DP  RH WIND       PRES   REMARKS
DES MOINES     CLEAR     55  46  71 S15       29.98S
QUAD CITIES    CLEAR     51  40  65 S8        30.08S

......ILLINOIS........

CITY           SKY/WX    TMP DP  RH WIND       PRES   REMARKS
QUINCY         CLEAR     52  40  63 S12       30.13S
CHICAGO        CLEAR     49  41  74 S7        30.15S



USA.gov is the U.S. government's official web portal to all federal, state and local government web resources and services.